Preview of NWS' New Version of Forecast
This preview is not operational and should not be used for support decisions.

Regional Weather Roundup (RWR)

Issued by National Weather Service (NWS)

                            
000
ASUS43 KDMX 180001
RWRIA 

WEATHER ROUNDUP FOR IOWA
NATIONAL WEATHER SERVICE DES MOINES IA
700 PM CDT TUE SEP 17 2019

NOTE: "FAIR" INDICATES FEW OR NO CLOUDS BELOW 12,000 FEET WITH NO
SIGNIFICANT WEATHER AND/OR OBSTRUCTIONS TO VISIBILITY.

* - THESE STATIONS ARE NOT NWS STATIONS...THUS NOT UNDER NWS
QUALITY CONTROL.  THEY ALSO DO NOT REPORT WEATHER SUCH 
AS PRECIPITATION OR FOG.  

IAZ001>003-012>014-020>022-031>034-043>046-180100-
   NORTHWEST IOWA
  
CITY           SKY/WX    TMP DP  RH WIND       PRES   REMARKS
CARROLL *      CLEAR     82  68  61 S10G17    29.90F HX  85           
CHEROKEE *     CLEAR     82  67  60 S13       29.86S HX  84           
DENISON *      CLEAR     82  72  69 S10       29.90S HX  87           
LE MARS *      CLEAR     82  70  65 SE13      29.82S HX  86           
SHELDON *      CLEAR     81  72  74 S10G16    29.83S HX  84           
SIOUX CITY     CLEAR     83  69  62 SE13      29.82S HX  86           
6HR MIN TEMP:  83; 6HR MAX TEMP:  88;                                

SPENCER        CLEAR     83  67  58 S13       29.87S HX  85           
6HR MIN TEMP:  83; 6HR MAX TEMP:  90;                                

STORM LAKE *   CLEAR     81  68  65 S13       29.86S HX  83           
$$
 
IAZ055>058-069>071-079>083-090>094-180100-
   SOUTHWEST IOWA
  
CITY           SKY/WX    TMP DP  RH WIND       PRES   REMARKS
ATLANTIC *     CLEAR     82  72  69 SE7G13    29.90F HX  87           
AUDUBON *        N/A     82  72  69 S6        29.93S HX  87           
CLARINDA *     CLEAR     82  72  69 S8        29.94S HX  87           
COUNCIL BLFS * CLEAR     84  66  54 S16G23    29.87S HX  86           
CRESTON *      CLEAR     81  70  69 S9        29.96S HX  84           
HARLAN  *      CLEAR     82  70  65 S10       29.90R HX  86           
LAMONI         PTCLDY    84  70  62 S6        29.97F HX  88           
6HR MIN TEMP:  84; 6HR MAX TEMP:  90;                                

RED OAK *      CLEAR     84  68  58 S12       29.91F HX  87           
SHENANDOAH *   CLEAR     84  68  58 S12       29.89F HX  87           
$$
 
IAZ047>049-059>061-072>074-084-180100-
   CENTRAL IOWA
  
CITY           SKY/WX    TMP DP  RH WIND       PRES   REMARKS
AMES           CLEAR     83  72  69 SE10      29.95S HX  88           
6HR MIN TEMP:  83; 6HR MAX TEMP:  90;                                

ANKENY *       CLEAR     84  73  70 SE8       29.96S HX  91           
BOONE *        CLEAR     82  73  74 SE10G16   29.94S HX  88           
CHARITON *     CLEAR     82  73  74 SE7       29.97F HX  88           
DES MOINES     PTCLDY    84  68  58 SE8       29.94S HX  87           
6HR MIN TEMP:  84; 6HR MAX TEMP:  90;                                

GRINNELL*      CLEAR     80  72  75 SE9       30.01S HX  83           
KNOXVILLE *    CLEAR     82  75  78 SE7       29.97S HX  89           
MARSHALLTOWN   CLEAR     78  73  84 SE12      29.98S HX  81           
6HR MIN TEMP:  78; 6HR MAX TEMP:  86;                                

NEWTON *       CLEAR     81  75  83 SE8       29.97S HX  86           
PELLA *        CLEAR     83  71  68 SE7       29.99S HX  87           
PERRY *        FAIR      82  68  60 SE5       29.93F HX  85           
$$
 
IAZ004>006-015-016-023>025-035-036-180100-
   NORTH CENTRAL IOWA
  
CITY           SKY/WX    TMP DP  RH WIND       PRES   REMARKS
ALGONA *       CLEAR     82  72  69 SE16      29.90S HX  87           
CLARION *      CLEAR     82  72  69 SE12      29.94S HX  87           
ESTHERVILLE    CLEAR     80  67  64 S15G26    29.88S HX  82           
6HR MIN TEMP:  80; 6HR MAX TEMP:  86;                                

FORT DODGE *   CLEAR     83  68  60 SE9       29.93S HX  86           
MASON CITY     CLEAR     81  70  69 SE13G23   29.97S HX  84           
6HR MIN TEMP:  81; 6HR MAX TEMP:  88;                                

FOREST CITY *  FAIR      81  72  74 SE13      29.94S HX  84           
IOWA FALLS *     N/A     80  69  67 SE10G17   29.99S HX  83           
$$

IAZ007>011-017>019-026>030-037>042-050>054-066-180100-
   NORTHEAST IOWA
  
CITY           SKY/WX    TMP DP  RH WIND       PRES   REMARKS
CEDAR RAPIDS   FAIR      75  67  76 SE8       30.02S                  
6HR MIN TEMP:  75; 6HR MAX TEMP:  80;                                

CHARLES CITY * FAIR      75  70  83 SE10      30.00S                  
CLINTON *      FAIR      72  68  87 E8        30.07F                  
DECORAH *      FAIR      73  66  78 SE9G16    30.02S                  
DUBUQUE        FAIR      71  68  90 SE6       30.07F                  
6HR MIN TEMP:  69; 6HR MAX TEMP:  76;                                

MONTICELLO *   FAIR      73  72  94 SE7       30.04F                  
OELWEIN *      CLEAR     73  70  88 SE12      30.03S                  
WATERLOO       FAIR      79  66  64 SE12      29.99S HX  81           
6HR MIN TEMP:  79; 6HR MAX TEMP:  87;                                

$$
 
IAZ064-065-067-068-078-180100-
   EAST CENTRAL IOWA
  
CITY           SKY/WX    TMP DP  RH WIND       PRES   REMARKS
DAVENPORT      FAIR      75  66  73 SE7       30.07S                  
6HR MIN TEMP:  73; 6HR MAX TEMP:  81;                                

IOWA CITY      FAIR      78  67  68 SE8       30.03F HX  80           
6HR MIN TEMP:  78; 6HR MAX TEMP:  83;                                

MUSCATINE *    FAIR      79  68  69 CALM      30.03F HX  81           
QUAD CITIES    FAIR      75  68  78 E7        30.05S                  
6HR MIN TEMP:  75; 6HR MAX TEMP:  83;                                

$$
 
IAZ062-063-075>077-085>089-095>099-180100-
   SOUTHEAST IOWA
  
CITY           SKY/WX    TMP DP  RH WIND       PRES   REMARKS
BURLINGTON     CLEAR     78  68  71 SE5       30.03F HX  80           
6HR MIN TEMP:  76; 6HR MAX TEMP:  84;                                

FAIRFIELD *    CLEAR     79  72  78 SE8       30.02S HX  82           
FORT MADISON * CLEAR     75  70  83 CALM      30.04S                  
KEOKUK *       CLEAR     77  72  83 E8        30.02S                  
OSKALOOSA *    FAIR      81  71  71 SE8       30.00S HX  84           
OTTUMWA        CLEAR     81  72  74 SE10      29.99F HX  85           
6HR MIN TEMP:  81; 6HR MAX TEMP:  87;                                

WASHINGTON *     N/A    N/A N/A N/A MISG        N/A                   
$$

ABBREVIATIONS USED IN REMARKS
   TC - TEMPERATURES IN CELSIUS
  WCI - WIND CHILL INDEX
   HX - HEAT INDEX
  VSB - VISIBILITY  
$$